Location: Killam
(52.7910°N, 111.8608°W)
Time: 12:30:05
(UTC+00:00)

ISS - Pass Details

Date: 25 January 2026
Orbit: 413 x 428 km, 51.6° (Epoch: 18 February)

Event Time Altitude Azimuth Distance (km) Brightness Sun altitude
Rises 00:37:44 0° 270° (W) 2,360 1.5 -6.1°
Reaches altitude 10° 00:39:50 10° 268° (W) 1,499 0.4 -6.4°
Maximum altitude 00:43:11 73° 185° (S) 444 -3.5 -6.9°
Drops below altitude 10° 00:46:33 10° 100° (E) 1,507 -1.5 -7.4°
Enters shadow 00:47:11 - 99° (E) 1,767 -1.1 -7.4°
